Powrót do katalogu

STARLINK-3895

AktywnyŁącznośćVLEO
NORAD 52583·PAYLOAD·🇺🇸 United States

Wystrzelony May 13, 2022 z Vandenberg Space Force Base

Loading…

Następne Przeloty (najbliższe 24 godziny)

TLE

ŚwieżeSource: CelesTrak SupGP

Epoka: Sep 15, 2026, 02:06 UTC

1 52583C 22051AZ  26258.08798611  .00047375  00000+0  13558-2 0  2583
2 52583  53.1593 341.9004 0000818  79.6586 146.2363 15.35368003    10

Śledź STARLINK-3895 w czasie rzeczywistym z AllMySat

Download on the App Store